This is the latest recevied weather packets stored in our database for station/object OK1KKY-14. If no packets are shown the sender has not sent any weather packets the latest 10 day(s).
| Time | Temp. | Humidity | Pressure | Rain* | Wind** | Luminosity | Snow |
|---|---|---|---|---|---|---|---|
| 1777729952 | 22.22° C | 32% | 1021.4 hPa | - | - | - | - |
| 1777729352 | 22.78° C | 32% | 1021.5 hPa | - | - | - | - |
| 1777728752 | 23.33° C | 30% | 1021.7 hPa | - | - | - | - |
| 1777728152 | 23.33° C | 31% | 1021.7 hPa | - | - | - | - |
| 1777727552 | 23.33° C | 31% | 1021.9 hPa | - | - | - | - |
| 1777726952 | 23.33° C | 31% | 1022.1 hPa | - | - | - | - |
| 1777726352 | 23.33° C | 31% | 1022.3 hPa | - | - | - | - |
| 1777725752 | 23.33° C | 31% | 1022.4 hPa | - | - | - | - |
| 1777725152 | 23.33° C | 31% | 1022.5 hPa | - | - | - | - |
| 1777724552 | 23.33° C | 31% | 1022.6 hPa | - | - | - | - |
| 1777723952 | 22.78° C | 32% | 1022.7 hPa | - | - | - | - |
| 1777723352 | 22.78° C | 32% | 1022.9 hPa | - | - | - | - |
| 1777722752 | 22.78° C | 32% | 1023 hPa | - | - | - | - |
| 1777722152 | 22.78° C | 29% | 1023.1 hPa | - | - | - | - |
| 1777721552 | 22.78° C | 30% | 1023.3 hPa | - | - | - | - |
| 1777720952 | 23.33° C | 29% | 1023.5 hPa | - | - | - | - |
| 1777720363 | 22.78° C | 33% | 1023.6 hPa | - | - | - | - |
| 1777719750 | 22.78° C | 33% | 1023.8 hPa | - | - | - | - |
| 1777719151 | 22.78° C | 29% | 1024 hPa | - | - | - | - |
| 1777718550 | 22.78° C | 34% | 1024.1 hPa | - | - | - | - |
| 1777717951 | 22.78° C | 33% | 1024.1 hPa | - | - | - | - |
| 1777717350 | 22.78° C | 34% | 1024.3 hPa | - | - | - | - |
| 1777716751 | 22.22° C | 36% | 1024.4 hPa | - | - | - | - |
| 1777716150 | 22.22° C | 38% | 1024.5 hPa | - | - | - | - |
| 1777715551 | 22.78° C | 39% | 1024.6 hPa | - | - | - | - |
* Rain since midnight (hover to see other rain measurements)
** Current wind speed in m/s (hover to see current wind gust speed)